User: anonymous   Login
Location: Clinton NY
(43.0598°N, 75.3602°W)
Time: 06:41:41
(UTC-04:00)
Language:

Iridium 11 - Orbit

View from above orbital plane
View from above orbital plane
View from above satellite
View from above satellite

Ground track
Ground track

The orbit data is extracted from the following two-line orbital elements,

1 25578U 98074B   17206.50374312 -.00000026 +00000-0 -16358-4 0  9993
2 25578 086.3946 239.5534 0002263 091.1291 021.7533 14.34219218982894
Epoch (UTC): 25 July 2017 12:05:23
Eccentricity: 0.0002263
inclination: 86.3946°
perigee height: 776 km
apogee height: 779 km
right ascension of ascending node: 239.5534°
argument of perigee: 91.1291°
revolutions per day: 14.34219218
mean anomaly at epoch: 21.7533°
orbit number at epoch: 98289

The dashed part of the orbit path shows where the satellite is in the earth's shadow,  

DLR